Location: Goheenville
(40.9070°N, 79.3720°W)
Time: 06:58:05
(UTC-04:00)

Daily predictions for brighter satellites

Satellite Brightness Start Highest point End
(mag) Time Altitude Azimuth Time Altitude Azimuth Time Altitude Azimuth
Cosmos 1605 Rocket 4.1 20:11:46 10° S 20:17:57 59° E 20:24:04 10° NNE
BREEZE-M DEB (TANK) 4.5 20:17:39 10° NW 20:20:25 30° NNE 20:26:50 10° E
Cosmos 2298 Rocket 4.5 20:15:35 10° N 20:20:41 44° ENE 20:25:45 10° SE
Cosmos 1626 Rocket 4.0 20:16:59 10° N 20:21:10 42° ENE 20:25:18 10° SSE
Cosmos 220 Rocket 4.0 20:18:28 10° NNW 20:22:40 62° ENE 20:26:49 10° SSE
Cosmos 1892 Rocket 4.3 20:19:40 10° NNW 20:24:06 60° W 20:28:30 10° S
Meteor 1-5 Rocket 4.3 20:18:45 10° SSW 20:24:07 80° W 20:29:41 10° N
USA 186 2.7 20:22:44 10° SE 20:25:11 24° ENE 20:27:30 10° NNE
Cosmos 1455 Rocket 3.2 20:21:14 10° S 20:25:34 83° W 20:29:57 10° N
ALOS 2.5 20:21:47 10° SSE 20:26:19 52° ENE 20:30:52 10° N
OAO 2 Rocket 3.9 20:24:14 10° WSW 20:28:55 43° S 20:33:36 10° ESE
Cosmos 1515 4.3 20:26:17 10° N 20:29:51 35° ENE 20:33:23 10° SE
Cosmos 1602 Rocket 3.7 20:27:30 10° N 20:31:53 56° E 20:36:13 10° SSE
Okean 2 4.3 20:28:08 10° NNW 20:32:12 52° W 20:36:13 10° S
ERS-1 Rocket 4.2 20:29:07 10° ESE 20:33:00 23° ENE 20:36:53 10° NNE
Meteor 1-12 Rocket 4.3 20:29:58 10° S 20:35:41 71° E 20:41:32 10° NNE
Cosmos 1346 Rocket 3.7 20:33:07 10° NNW 20:36:59 51° W 20:40:52 10° S
Helios 1B rocket 3.5 20:33:15 10° N 20:37:15 50° WNW 20:41:13 10° SSW
Cosmos 1763 Rocket 4.3 20:40:06 10° SSE 20:44:23 28° E 20:48:40 10° NE
Cosmos 2150 Rocket 4.0 20:40:34 10° NNW 20:45:41 64° ENE 20:50:49 10° SSE
Cosmos 1697 Rocket 2.6 20:41:00 10° SSW 20:46:36 68° ESE 20:52:13 10° NNE
Resurs 1-3 4.4 20:43:11 10° S 20:47:27 54° W 20:51:47 10° NNW
Tiangong 1 1.0 20:44:29 10° WNW 20:47:37 83° SSW 20:49:40 19° ESE
Cosmos 2123 Rocket 4.4 20:42:59 10° NNW 20:49:06 68° W 20:55:13 10° S
Cosmos 1743 3.6 20:46:08 10° SSE 20:49:31 28° E 20:52:55 10° NNE
Cosmos 1939 Rocket 4.3 20:47:21 15° ESE 20:49:32 23° ENE 20:52:48 10° NNE
Cosmos 1459 Rocket 4.3 20:47:28 10° SSE 20:53:07 43° E 20:58:51 10° NNE
Cosmos 1066 Rocket 4.3 20:48:40 10° N 20:54:20 61° ENE 21:00:04 10° SSE
Cosmos 1898 Rocket 3.5 20:50:42 10° NNW 20:56:01 83° ENE 21:01:16 10° SSE
SL-16 R/B 3.4 21:00:04 18° ESE 21:00:56 19° E 21:04:46 10° ENE
Cosmos 1606 Rocket 4.2 21:01:24 15° SSE 21:04:30 33° E 21:08:29 10° NNE
Cosmos 2058 Rocket 4.3 21:03:44 21° ESE 21:04:33 22° E 21:08:00 10° NE
Cosmos 468 Rocket 4.0 21:00:03 10° SSW 21:05:09 86° WNW 21:10:20 10° NNE
BREEZE-M DEB (TANK) 4.2 20:47:53 10° SW 21:07:17 76° SSE 21:12:09 11° ENE
BREEZE-M DEB (TANK) 4.5 21:04:02 10° WSW 21:08:13 80° NNW 21:24:16 10° ENE
Cosmos 841 Rocket 3.8 21:04:37 10° S 21:09:32 43° ESE 21:14:27 10° NNE
Cosmos 1980 Rocket 2.1 21:05:27 10° S 21:11:02 66° ESE 21:16:42 10° NNE
ASTEX 1 4.5 21:07:25 10° NNE 21:11:29 24° E 21:12:21 23° ESE
RESURS DK-1 2.4 21:11:17 10° NNW 21:15:26 79° WSW 21:18:10 21° SSE
Resurs 01 Rocket 4.2 21:13:35 10° SW 21:16:54 20° W 21:20:13 10° NW
H-2A R/B 3.8 21:14:33 10° S 21:18:19 46° W 21:22:08 10° NNW
Cosmos 1814 Rocket 4.2 21:13:45 10° SSW 21:19:05 78° WNW 21:24:25 10° NNE
FENGYUN 3A 4.5 21:15:12 10° S 21:20:22 50° W 21:25:35 10° NNW
Cosmos 1726 Rocket 3.7 21:24:43 28° SSE 21:26:41 49° E 21:30:57 10° NNE
Cosmos 1842 4.0 21:24:14 10° NNE 21:27:49 33° ENE 21:27:49 33° ENE
Cosmos 1666 3.3 21:29:44 36° ENE 21:29:44 36° ENE 21:32:51 10° NNE
YAOGAN 6 4.2 21:30:59 22° NE 21:30:59 22° NE 21:33:21 10° NNE
Cosmos 2263 Rocket 3.5 21:30:57 10° N 21:35:21 23° NE 21:36:35 22° ENE
Iridium 4 Rocket 4.5 21:33:10 10° NNW 21:37:46 42° W 21:41:58 10° SSW
Lacrosse 5 2.7 21:34:38 10° WNW 21:39:25 44° SW 21:41:56 25° S
Cosmos 1802 Rocket 4.0 21:33:10 10° S 21:39:34 87° E 21:46:02 10° N
Cosmos 1825 Rocket 3.6 21:37:37 10° N 21:42:02 76° W 21:44:13 29° S
Cosmos 2016 Rocket 3.9 21:38:13 10° S 21:44:20 80° E 21:50:34 10° N
Cosmos 2322 Rocket 2.3 21:43:34 31° SSE 21:45:53 48° ESE 21:51:16 10° NE
Cosmos 1340 2.8 21:42:45 10° NNW 21:46:33 69° W 21:47:33 45° SSW
SPOT 5 3.0 21:47:47 47° ESE 21:48:39 54° ENE 21:53:16 10° N
SWAS 4.3 21:46:42 10° SSW 21:51:00 86° ESE 21:55:22 10° NNE
Envisat 2.9 21:49:38 35° S 21:51:51 85° WSW 21:56:57 10° NNW
MetOp-A 4.2 21:52:04 47° ESE 21:53:13 57° ENE 21:58:28 10° N
Cosmos 1953 Rocket 3.6 21:49:53 10° N 21:54:21 77° W 21:55:42 44° S
Cosmos 2228 3.5 21:55:49 43° NE 21:55:49 43° NE 21:59:03 10° NNE
H-2A R/B 1.8 21:55:01 73° E 21:55:11 74° ENE 21:59:21 10° N
Cosmos 2173 Rocket 4.5 21:49:56 10° SSW 21:56:12 61° W 22:02:28 10° N
Nimbus 7 Rocket 4.3 21:51:12 10° NNE 21:57:17 72° ESE 22:01:08 24° S
Meteor 2-9 Rocket 4.0 21:57:29 34° S 21:59:56 78° E 22:05:19 10° NNE
Cosmos 1375 Rocket 4.4 21:54:41 10° SSW 22:01:11 70° ESE 22:07:45 10° NE
Terra 3.8 22:03:43 16° NE 22:03:43 16° NE 22:05:38 10° NNE
Meteor 1-15 Rocket 4.2 22:02:12 37° S 22:04:36 75° E 22:10:28 10° NNE
ERS-1 Rocket 4.0 22:08:47 23° SSW 22:11:30 42° W 22:16:16 10° NNW
Cosmos 1758 Rocket 4.0 22:08:19 10° NNW 22:12:34 55° W 22:13:13 49° SW
Cosmos 1864 Rocket 4.3 22:10:22 35° S 22:13:08 88° E 22:19:17 10° N
Cosmos 405 Rocket 4.4 22:14:05 10° N 22:15:52 25° NNE 22:15:52 25° NNE
BREEZE-M DEB (TANK) 3.0 22:15:36 10° WNW 22:17:23 49° WNW 22:17:23 49° WNW
Tiangong 1 4.2 22:21:30 10° W 22:21:38 11° WSW 22:21:38 11° WSW
H-2A R/B 3.2 22:25:29 28° NE 22:25:29 28° NE 22:28:36 10° N
BREEZE-M DEB (TANK) 4.2 22:09:50 10° SW 22:24:17 77° SSE 22:25:52 49° ENE
Meteor 2-17 Rocket 4.2 22:24:20 70° SE 22:24:45 73° E 22:30:47 10° NNE
deb Chang Zheng 4 4.3 22:21:30 10° N 22:25:51 52° WNW 22:26:46 44° WSW
Tsikada Rocket 4.1 22:22:13 10° N 22:28:39 75° W 22:30:23 50° SSW
ARGOS 3.1 22:39:04 77° N 22:39:04 77° N 22:44:05 10° NNW
USA 215 4.1 22:37:02 33° ENE 22:38:55 39° NNE 22:44:52 10° NW
SPOT 1/Viking Rocket 3.7 22:44:10 71° NW 22:44:10 71° NW 22:48:54 10° NNW
NOAA 11 4.2 22:44:17 78° NW 22:44:17 78° NW 22:49:25 10° NNW
Cosmos 1125 Rocket 4.1 22:39:15 10° NNW 22:44:16 49° WSW 22:44:17 49° WSW
SL-16 R/B 2.6 22:41:42 29° SW 22:44:29 60° WNW 22:50:07 10° NNE
Cosmos 1844 Rocket 4.5 22:42:16 10° N 22:45:36 19° NE 22:45:36 19° NE
Cosmos 2360 Rocket 3.7 22:58:32 27° NE 22:58:32 27° NE 23:01:01 10° NNE
Cosmos 540 Rocket 4.1 22:55:48 52° WNW 22:55:48 52° WNW 23:00:36 10° N
Cosmos 2233 Rocket 4.4 23:06:51 53° WSW 23:07:31 56° W 23:13:40 10° N
Cosmos 2263 Rocket 3.1 23:14:12 10° NNW 23:18:16 43° WNW 23:18:16 43° WNW
Cosmos 2322 Rocket 4.1 23:25:34 10° WSW 23:30:09 25° NW 23:34:48 10° N
Terra 3.9 23:42:37 25° NNW 23:42:37 25° NNW 23:44:40 10° NNW
